Regional Weather Roundup
Issued by NWS Goodland, KS

Home | Current Version | Previous Version | Text Only | Print | Product List | Glossary On
Versions: 1 2 3 4 5 6 7 8 9 10 11 12 13 14 15 16 17 18 19 20 21 22 23 24 25 26 27 28 29 30 31 32 33 34 35 36 37 38 39 40 41 42 43 44 45 46 47 48 49 50
000
ASUS43 KGLD 171308
RWRGLD

GOODLAND FORECAST AREA HOURLY WEATHER ROUNDUP
NATIONAL WEATHER SERVICE GOODLAND KS
600 AM MST TUE JAN 17 2017

...OFFICIAL OBSERVATIONS...

CITY           SKY/WX    TMP DP  RH WIND       PRES   REMARKS
GOODLAND KS    CLEAR     23  19  85 W8        30.08S
HILL CITY KS   PTCLDY    30  25  81 NW7       30.10R
IMPERIAL NEB   CLOUDY    21  15  78 W3        30.08S
MCCOOK NEB     CLOUDY    24  21  88 W7        30.09S
AKRON CO       CLOUDY    20  13  74 SW8       30.05S
BURLINGTON CO  CLOUDY    25  19  78 W7        30.09R
LIMON CO       CLOUDY    16  14  92 N6        30.06S
$$

...UNOFFICIAL OBSERVATIONS...

CITY           SKY/WX    TMP DP  RH WIND       PRES   REMARKS
LENORA KS        N/A     28  32 100 NW9         N/A
NORTON KS      CLEAR     28  19  69 W10       30.08R WCI  19
SHARON SPRINGS   N/A     32  29  87 CALM        N/A
TRENTON NEB      N/A     23  32 100 W5          N/A
KIT CARSON CO    N/A     28  25  87 CALM        N/A
YUMA CO          N/A    N/A N/A N/A SW10      30.07S
$$




USA.gov is the U.S. government's official web portal to all federal, state and local government web resources and services.